Météo Nord-Pas-de-Calais   La météo au plus près de chez vous

Station météorologique

Observations météo à Auxerre-Perrigny (89295)

89295001 152 m Dernier relevé à 16:24
32.4°C
Humidité 25 % Vent 16.2 km/h 1016.3 hPa

Journée consultée

Vendredi 4 Septembre 2026

Synthèse de la journée

Périodes de référence en UTC

Température maximale

32.8°C

à 16:00

06h 06h

Température minimale

16.6°C

à 06:48

18h 18h

Rafale maximale

32 km/h

à 16:18

00h 00h

Précipitations

0 mm

Cumul quotidien

06h 06h

Ensoleillement

8h 53 mins

Durée quotidienne

00h 00h

Graphiques de la journée

Heure locale Réduire

Données détaillées

Relevés météo

Pas de 6 minutes Afficher les relevés infra-horaires
Relevés météo détaillés à Auxerre-Perrigny pour le Vendredi 4 Septembre 2026
Heure Température °C Point de rosée °C Humidité % Vent moyen (raf.), km/h Précipitations mm Température à 10 cm °C Température à 20 cm °C Température à 50 cm °C Température à 100 cm °C Visibilité m État du sol   Hauteur neige cm Ensoleillement min Rayonnement global W/m² Pression hPa
16:24 32.4 °C 10.4 °C 26 % 17 km/h (32 km/h) 0 mm0 mm 27.5 °C 26.4 °C 22.7 °C 21.6 °C 20000 m 0   0 cm 6 min 214.1 W/m² 1015.9 hPa
16:18 32.4 °C 9.8 °C 25 % 15 km/h (32 km/h) 0 mm0 mm 27.4 °C 26.3 °C 22.7 °C 21.6 °C 20000 m 0   0 cm 6 min 218.8 W/m² 1016 hPa
16:12 32.2 °C 9.7 °C 25 % 16 km/h (32 km/h) 0 mm0 mm 27.3 °C 26.2 °C 22.7 °C 21.6 °C 20000 m 0   0 cm 6 min 222.9 W/m² 1016 hPa
16:06 32.3 °C 9.8 °C 25 % 18 km/h (32 km/h) 0 mm0 mm 27.2 °C 26.1 °C 22.7 °C 21.6 °C 20000 m 0   0 cm 6 min 227.4 W/m² 1016.1 hPa
16:00 32.7 °C 9.5 °C 24 % 17 km/h (27 km/h) 0 mm0 mm 27.2 °C 26 °C 22.7 °C 21.6 °C 20000 m 0   0 cm 6 min 231.7 W/m² 1016.1 hPa
15:54 32.6 °C 8.8 °C 23 % 14 km/h (24 km/h) 0 mm0 mm 27.1 °C 25.9 °C 22.6 °C 21.6 °C 20000 m 0   0 cm 6 min 235.8 W/m² 1016.1 hPa
15:48 32.6 °C 9.4 °C 24 % 12 km/h (23 km/h) 0 mm0 mm 26.9 °C 25.9 °C 22.7 °C 21.6 °C 20000 m 0   0 cm 6 min 239.6 W/m² 1016.1 hPa
15:42 32.1 °C 9.6 °C 25 % 14 km/h (28 km/h) 0 mm0 mm 26.9 °C 25.8 °C 22.6 °C 21.6 °C 20000 m 0   0 cm 6 min 242.6 W/m² 1016.1 hPa
15:36 32.2 °C 9.7 °C 25 % 17 km/h (31 km/h) 0 mm0 mm 26.8 °C 25.7 °C 22.6 °C 21.6 °C 20000 m 0   0 cm 6 min 245.7 W/m² 1016.2 hPa
15:30 32 °C 10.1 °C 26 % 17 km/h (31 km/h) 0 mm0 mm 26.7 °C 25.6 °C 22.6 °C 21.6 °C 20000 m 0   0 cm 6 min 248.6 W/m² 1016.3 hPa
15:24 32 °C 9.5 °C 25 % 16 km/h (27 km/h) 0 mm0 mm 26.6 °C 25.5 °C 22.6 °C 21.6 °C 20000 m 0   0 cm 6 min 251.3 W/m² 1016.3 hPa
15:18 32.1 °C 9.6 °C 25 % 14 km/h (27 km/h) 0 mm0 mm 26.5 °C 25.5 °C 22.7 °C 21.6 °C 20000 m 0   0 cm 6 min 254.3 W/m² 1016.3 hPa
15:12 31.7 °C 9.8 °C 26 % 16 km/h (25 km/h) 0 mm0 mm 26.3 °C 25.4 °C 22.6 °C 21.6 °C 20000 m 0   0 cm 6 min 256.7 W/m² 1016.4 hPa
15:06 31.9 °C 9.4 °C 25 % 17 km/h (25 km/h) 0 mm0 mm 26.3 °C 25.3 °C 22.6 °C 21.6 °C 20000 m 0   0 cm 6 min 259 W/m² 1016.4 hPa
15:00 31.7 °C 9.3 °C 25 % 16 km/h (25 km/h) 0 mm0 mm 26.2 °C 25.2 °C 22.6 °C 21.6 °C 20000 m 0   0 cm 6 min 260.8 W/m² 1016.4 hPa
14:54 31.5 °C 10.2 °C 27 % 17 km/h (24 km/h) 0 mm0 mm 26.1 °C 25.2 °C 22.7 °C 21.6 °C 20000 m 0   0 cm 6 min 263 W/m² 1016.5 hPa
14:48 31.6 °C 10.3 °C 27 % 17 km/h (30 km/h) 0 mm0 mm 26 °C 25.1 °C 22.6 °C 21.6 °C 20000 m 0   0 cm 6 min 264.5 W/m² 1016.6 hPa
14:42 31.5 °C 9.7 °C 26 % 14 km/h (30 km/h) 0 mm0 mm 25.9 °C 25 °C 22.6 °C 21.6 °C 20000 m 0   0 cm 6 min 265.9 W/m² 1016.7 hPa
14:36 31.4 °C 11.2 °C 29 % 14 km/h (23 km/h) 0 mm0 mm 25.8 °C 25 °C 22.7 °C 21.6 °C 20000 m 0   0 cm 6 min 267.4 W/m² 1016.7 hPa
14:30 31.5 °C 11.3 °C 29 % 15 km/h (27 km/h) 0 mm0 mm 25.8 °C 24.9 °C 22.7 °C 21.6 °C 20000 m 0   0 cm 6 min 267.6 W/m² 1016.8 hPa
14:24 31.1 °C 12 °C 31 % 15 km/h (27 km/h) 0 mm0 mm 25.7 °C 24.8 °C 22.7 °C 21.6 °C 20000 m 0   0 cm 6 min 268.5 W/m² 1016.9 hPa
14:18 30.9 °C 12.3 °C 32 % 15 km/h (28 km/h) 0 mm0 mm 25.6 °C 24.8 °C 22.7 °C 21.6 °C 20000 m 0   0 cm 6 min 269.2 W/m² 1017 hPa
14:12 30.8 °C 12.7 °C 33 % 17 km/h (30 km/h) 0 mm0 mm 25.6 °C 24.7 °C 22.7 °C 21.6 °C 20000 m 0   0 cm 6 min 270.1 W/m² 1017 hPa
14:06 30.3 °C 12.2 °C 33 % 17 km/h (30 km/h) 0 mm0 mm 25.5 °C 24.6 °C 22.7 °C 21.6 °C 20000 m 0   0 cm 6 min 271.3 W/m² 1017.1 hPa
14:00 30.8 °C 12.2 °C 32 % 14 km/h (28 km/h) 0 mm0 mm 25.5 °C 24.6 °C 22.7 °C 21.6 °C 20000 m 0   0 cm 6 min 271.8 W/m² 1017.1 hPa
13:54 30.6 °C 11.5 °C 31 % 17 km/h (30 km/h) 0 mm0 mm 25.4 °C 24.5 °C 22.7 °C 21.6 °C 20000 m 0   0 cm 6 min 271.7 W/m² 1017.2 hPa
13:48 30.6 °C 12 °C 32 % 17 km/h (30 km/h) 0 mm0 mm 25.3 °C 24.4 °C 22.7 °C 21.6 °C 20000 m 0   0 cm 6 min 272.2 W/m² 1017.2 hPa
13:42 30.4 °C 12.3 °C 33 % 18 km/h (26 km/h) 0 mm0 mm 25.2 °C 24.4 °C 22.7 °C 21.6 °C 20000 m 0   0 cm 6 min 271.8 W/m² 1017.2 hPa
13:36 30.3 °C 12.2 °C 33 % 17 km/h (31 km/h) 0 mm0 mm 25.1 °C 24.3 °C 22.7 °C 21.6 °C 20000 m 0   0 cm 6 min 271.7 W/m² 1017.2 hPa
13:30 30.5 °C 12.4 °C 33 % 15 km/h (25 km/h) 0 mm0 mm 25 °C 24.2 °C 22.7 °C 21.6 °C 20000 m 0   0 cm 6 min 270.9 W/m² 1017.2 hPa
13:24 30.1 °C 12.5 °C 34 % 16 km/h (27 km/h) 0 mm0 mm 25 °C 24.1 °C 22.7 °C 21.6 °C 20000 m 0   0 cm 6 min 270.5 W/m² 1017.1 hPa
13:18 30.1 °C 12.1 °C 33 % 17 km/h (28 km/h) 0 mm0 mm 24.9 °C 24 °C 22.7 °C 21.6 °C 20000 m 0   0 cm 6 min 270 W/m² 1017.3 hPa
13:12 29.9 °C 11.9 °C 33 % 17 km/h (28 km/h) 0 mm0 mm 24.8 °C 23.9 °C 22.7 °C 21.6 °C 20000 m 0   0 cm 6 min 268.7 W/m² 1017.3 hPa
13:06 29.7 °C 12.2 °C 34 % 13 km/h (26 km/h) 0 mm0 mm 24.6 °C 23.8 °C 22.7 °C 21.6 °C 20000 m 0   0 cm 6 min 267.4 W/m² 1017.3 hPa
13:00 29.5 °C 12.9 °C 36 % 15 km/h (22 km/h) 0 mm0 mm 24.5 °C 23.8 °C 22.7 °C 21.6 °C 20000 m 0   0 cm 6 min 266.3 W/m² 1017.4 hPa
12:54 29.5 °C 12.9 °C 36 % 15 km/h (23 km/h) 0 mm0 mm 24.4 °C 23.7 °C 22.7 °C 21.6 °C 20000 m 0   0 cm 6 min 264.8 W/m² 1017.5 hPa
12:48 29.5 °C 13.3 °C 37 % 15 km/h (25 km/h) 0 mm0 mm 24.3 °C 23.6 °C 22.7 °C 21.6 °C 20000 m 0   0 cm 6 min 262.8 W/m² 1017.6 hPa
12:42 29.7 °C 13 °C 36 % 14 km/h (23 km/h) 0 mm0 mm 24.2 °C 23.5 °C 22.8 °C 21.6 °C 20000 m 0   0 cm 6 min 260.9 W/m² 1017.6 hPa
12:36 29.3 °C 13.5 °C 38 % 13 km/h (23 km/h) 0 mm0 mm 24.1 °C 23.4 °C 22.7 °C 21.6 °C 20000 m 0   0 cm 6 min 258.4 W/m² 1017.7 hPa
12:30 29.2 °C 13.8 °C 39 % 14 km/h (23 km/h) 0 mm0 mm 23.9 °C 23.3 °C 22.7 °C 21.6 °C 20000 m 0   0 cm 6 min 256.4 W/m² 1017.7 hPa
12:24 28.9 °C 13.9 °C 40 % 14 km/h (23 km/h) 0 mm0 mm 23.8 °C 23.2 °C 22.7 °C 21.6 °C 20000 m 0   0 cm 6 min 253.9 W/m² 1017.8 hPa
12:18 28.7 °C 14.1 °C 41 % 15 km/h (23 km/h) 0 mm0 mm 23.7 °C 23.2 °C 22.8 °C 21.6 °C 20000 m 0   0 cm 6 min 251.1 W/m² 1017.9 hPa
12:12 28.7 °C 14.5 °C 42 % 14 km/h (22 km/h) 0 mm0 mm 23.6 °C 23.1 °C 22.8 °C 21.6 °C 20000 m 0   0 cm 6 min 248.5 W/m² 1018 hPa
12:06 28.5 °C 14 °C 41 % 13 km/h (22 km/h) 0 mm0 mm 23.5 °C 23 °C 22.7 °C 21.6 °C 20000 m 0   0 cm 6 min 244.8 W/m² 1018 hPa
12:00 28.4 °C 14.6 °C 43 % 12 km/h (21 km/h) 0 mm0 mm 23.4 °C 22.9 °C 22.7 °C 21.6 °C 20000 m 0   0 cm 6 min 242.8 W/m² 1018.1 hPa
11:54 28 °C 14.6 °C 44 % 13 km/h (22 km/h) 0 mm0 mm 23.3 °C 22.8 °C 22.7 °C 21.6 °C 20000 m 0   0 cm 6 min 239.1 W/m² 1018.2 hPa
11:48 28 °C 14.6 °C 44 % 15 km/h (25 km/h) 0 mm0 mm 23.2 °C 22.8 °C 22.8 °C 21.6 °C 20000 m 0   0 cm 6 min 235 W/m² 1018.3 hPa
11:42 27.7 °C 14.7 °C 45 % 13 km/h (23 km/h) 0 mm0 mm 23.1 °C 22.7 °C 22.7 °C 21.6 °C 20000 m 0   0 cm 6 min 231.8 W/m² 1018.3 hPa
11:36 27.4 °C 14.8 °C 46 % 14 km/h (22 km/h) 0 mm0 mm 23 °C 22.6 °C 22.8 °C 21.6 °C 20000 m 0   0 cm 6 min 228.3 W/m² 1018.4 hPa
11:30 27.4 °C 15.1 °C 47 % 13 km/h (20 km/h) 0 mm0 mm 22.9 °C 22.6 °C 22.8 °C 21.6 °C 20000 m 0   0 cm 6 min 223.9 W/m² 1018.5 hPa
11:24 27.2 °C 15.2 °C 48 % 11 km/h (19 km/h) 0 mm0 mm 22.7 °C 22.5 °C 22.8 °C 21.6 °C 20000 m 0   0 cm 6 min 218.8 W/m² 1018.6 hPa
11:18 27.1 °C 15.5 °C 49 % 10 km/h (18 km/h) 0 mm0 mm 22.7 °C 22.4 °C 22.8 °C 21.6 °C 20000 m 0   0 cm 6 min 215.8 W/m² 1018.7 hPa
11:12 26.9 °C 15.6 °C 50 % 14 km/h (22 km/h) 0 mm0 mm 22.6 °C 22.4 °C 22.8 °C 21.6 °C 20000 m 0   0 cm 6 min 211.4 W/m² 1018.7 hPa
11:06 26.8 °C 15.2 °C 49 % 13 km/h (22 km/h) 0 mm0 mm 22.5 °C 22.3 °C 22.8 °C 21.6 °C 20000 m 0   0 cm 6 min 207.1 W/m² 1018.7 hPa
11:00 26.6 °C 15.3 °C 50 % 10 km/h (17 km/h) 0 mm0 mm 22.4 °C 22.3 °C 22.8 °C 21.6 °C 20000 m 0   0 cm 6 min 201.9 W/m² 1018.9 hPa
10:54 26.2 °C 15.3 °C 51 % 10 km/h (17 km/h) 0 mm0 mm 22.3 °C 22.2 °C 22.8 °C 21.6 °C 20000 m 0   0 cm 6 min 196 W/m² 1018.9 hPa
10:48 26 °C 15.4 °C 52 % 8 km/h (17 km/h) 0 mm0 mm 22.2 °C 22.2 °C 22.8 °C 21.6 °C 20000 m 0   0 cm 6 min 190.7 W/m² 1019 hPa
10:42 25.7 °C 15.7 °C 54 % 6 km/h (15 km/h) 0 mm0 mm 22.2 °C 22.2 °C 22.9 °C 21.6 °C 20000 m 0   0 cm 6 min 184.5 W/m² 1019 hPa
10:36 25.2 °C 15.8 °C 56 % 7 km/h (11 km/h) 0 mm0 mm 22.1 °C 22.1 °C 22.8 °C 21.6 °C 18910 m 0   0 cm 6 min 179.9 W/m² 1019 hPa
10:30 25.1 °C 15.7 °C 56 % 7 km/h (12 km/h) 0 mm0 mm 22 °C 22.1 °C 22.8 °C 21.6 °C 18910 m 0   0 cm 6 min 175.9 W/m² 1019 hPa
10:24 24.9 °C 16.1 °C 58 % 6 km/h (14 km/h) 0 mm0 mm 21.9 °C 22.1 °C 22.8 °C 21.6 °C 20000 m 0   0 cm 6 min 172.4 W/m² 1019.2 hPa
10:18 24.8 °C 16 °C 58 % 7 km/h (14 km/h) 0 mm0 mm 21.9 °C 22 °C 22.8 °C 21.6 °C 20000 m 0   0 cm 6 min 168.1 W/m² 1019.2 hPa
10:12 24.3 °C 15.8 °C 59 % 8 km/h (13 km/h) 0 mm0 mm 21.8 °C 22 °C 22.9 °C 21.6 °C 20000 m 0   0 cm 6 min 153.5 W/m² 1019.3 hPa
10:06 24 °C 15.8 °C 60 % 9 km/h (13 km/h) 0 mm0 mm 21.8 °C 22 °C 22.9 °C 21.6 °C 20000 m 0   0 cm 6 min 154.6 W/m² 1019.3 hPa
10:00 23.7 °C 15.7 °C 61 % 8 km/h (13 km/h) 0 mm0 mm 21.7 °C 21.9 °C 22.9 °C 21.6 °C 20000 m 0   0 cm 6 min 151.2 W/m² 1019.3 hPa
09:54 23.3 °C 16.1 °C 64 % 5 km/h (11 km/h) 0 mm0 mm 21.7 °C 21.9 °C 22.9 °C 21.6 °C 20000 m 0   0 cm 6 min 144.5 W/m² 1019.4 hPa
09:48 22.6 °C 15.4 °C 64 % 6 km/h (10 km/h) 0 mm0 mm 21.7 °C 21.9 °C 22.9 °C 21.6 °C 20000 m 0   0 cm 6 min 138.3 W/m² 1019.5 hPa
09:42 22.5 °C 15.6 °C 65 % 7 km/h (10 km/h) 0 mm0 mm 21.6 °C 21.9 °C 22.9 °C 21.6 °C 20000 m 0   0 cm 6 min 132.1 W/m² 1019.5 hPa
09:36 22.4 °C 15.7 °C 66 % 7 km/h (9 km/h) 0 mm0 mm 21.6 °C 21.9 °C 22.9 °C 21.6 °C 20000 m 0   0 cm 6 min 125.9 W/m² 1019.4 hPa
09:30 22.1 °C 15.4 °C 66 % 6 km/h (9 km/h) 0 mm0 mm 21.6 °C 21.9 °C 22.9 °C 21.6 °C 20000 m 0   0 cm 6 min 120 W/m² 1019.5 hPa
09:24 22 °C 15.4 °C 66 % 5 km/h (9 km/h) 0 mm0 mm 21.6 °C 21.9 °C 22.9 °C 21.6 °C 20000 m 0   0 cm 6 min 110.9 W/m² 1019.5 hPa
09:18 21.9 °C 15.5 °C 67 % 5 km/h (9 km/h) 0 mm0 mm 21.5 °C 21.9 °C 22.9 °C 21.6 °C 20000 m 0   0 cm 6 min 103.5 W/m² 1019.5 hPa
09:12 21.7 °C 15.3 °C 67 % 5 km/h (10 km/h) 0 mm0 mm 21.6 °C 21.9 °C 22.9 °C 21.6 °C 20000 m 0   0 cm 6 min 103.3 W/m² 1019.6 hPa
09:06 21.5 °C 15.3 °C 68 % 4 km/h (9 km/h) 0 mm0 mm 21.5 °C 21.9 °C 22.9 °C 21.6 °C 20000 m 0   0 cm 6 min 96.6 W/m² 1019.6 hPa
09:00 21.3 °C 15.4 °C 69 % 4 km/h (6 km/h) 0 mm0 mm 21.6 °C 22 °C 22.9 °C 21.6 °C 20000 m 0   0 cm 6 min 89.5 W/m² 1019.5 hPa
08:54 21 °C 15.3 °C 70 % 4 km/h (6 km/h) 0 mm0 mm 21.6 °C 22 °C 22.9 °C 21.6 °C 20000 m 0   0 cm 6 min 83.5 W/m² 1019.5 hPa
08:48 20.8 °C 15.3 °C 71 % 4 km/h (6 km/h) 0 mm0 mm 21.6 °C 22 °C 22.9 °C 21.6 °C 20000 m 0   0 cm 6 min 77.3 W/m² 1019.6 hPa
08:42 20.2 °C 15.2 °C 73 % 5 km/h (7 km/h) 0 mm0 mm 21.6 °C 22 °C 22.9 °C 21.6 °C 20000 m 0   0 cm 6 min 71.3 W/m² 1019.6 hPa
08:36 19.9 °C 15.3 °C 75 % 5 km/h (8 km/h) 0 mm0 mm 21.6 °C 22 °C 22.9 °C 21.6 °C 20000 m 0   0 cm 6 min 65.1 W/m² 1019.8 hPa
08:30 19.6 °C 15.3 °C 76 % 5 km/h (8 km/h) 0 mm0 mm 21.6 °C 22.1 °C 22.9 °C 21.6 °C 20000 m 0   0 cm 6 min 59 W/m² 1019.8 hPa
08:24 19.3 °C 15.2 °C 77 % 5 km/h (7 km/h) 0 mm0 mm 21.6 °C 22.1 °C 22.9 °C 21.6 °C 20000 m 0   0 cm 6 min 53.1 W/m² 1019.7 hPa
08:18 19.1 °C 15 °C 77 % 5 km/h (7 km/h) 0 mm0 mm 21.7 °C 22.1 °C 22.9 °C 21.6 °C 20000 m 0   0 cm 6 min 47.3 W/m² 1019.7 hPa
08:12 18.9 °C 15.2 °C 79 % 5 km/h (7 km/h) 0 mm0 mm 21.7 °C 22.2 °C 22.9 °C 21.6 °C 20000 m 0   0 cm 6 min 39.4 W/m² 1019.7 hPa
08:06 18.6 °C 15.1 °C 80 % 6 km/h (8 km/h) 0 mm0 mm 21.7 °C 22.2 °C 22.9 °C 21.6 °C 20000 m 0   0 cm 6 min 36.3 W/m² 1019.6 hPa
08:00 18.2 °C 15.1 °C 82 % 6 km/h (8 km/h) 0 mm0 mm 21.7 °C 22.2 °C 22.9 °C 21.6 °C 20000 m 0   0 cm 6 min 30.5 W/m² 1019.7 hPa
07:54 17.9 °C 15 °C 83 % 6 km/h (8 km/h) 0 mm0 mm 21.7 °C 22.2 °C 22.9 °C 21.6 °C 20000 m 0   0 cm 6 min 25.4 W/m² 1019.7 hPa
07:48 17.6 °C 14.9 °C 84 % 7 km/h (9 km/h) 0 mm0 mm 21.8 °C 22.2 °C 22.9 °C 21.6 °C 20000 m 0   0 cm 6 min 20.3 W/m² 1019.7 hPa
07:42 17.3 °C 14.8 °C 85 % 8 km/h (9 km/h) 0 mm0 mm 21.8 °C 22.3 °C 23 °C 21.6 °C 20000 m 0   0 cm 6 min 15.8 W/m² 1019.7 hPa
07:36 17 °C 14.6 °C 86 % 8 km/h (9 km/h) 0 mm0 mm 21.9 °C 22.3 °C 22.9 °C 21.6 °C 20000 m 0   0 cm 5 min 11 W/m² 1019.6 hPa
07:30 16.8 °C 14.6 °C 87 % 9 km/h (10 km/h) 0 mm0 mm 21.9 °C 22.3 °C 22.9 °C 21.6 °C 20000 m 0   0 cm 0 min 0 W/m² 1019.6 hPa
07:24 16.8 °C 14.4 °C 86 % 9 km/h (11 km/h) 0 mm0 mm 21.9 °C 22.4 °C 22.9 °C 21.6 °C 20000 m 0   0 cm 0 min 0 W/m² 1019.6 hPa
07:18 16.9 °C 14.5 °C 86 % 9 km/h (11 km/h) 0 mm0 mm 21.9 °C 22.4 °C 22.9 °C 21.6 °C 20000 m 0   0 cm 0 min 0 W/m² 1019.6 hPa
07:12 16.8 °C 14.4 °C 86 % 9 km/h (11 km/h) 0 mm0 mm 22 °C 22.4 °C 22.9 °C 21.6 °C 20000 m 0   0 cm 0 min 0 W/m² 1019.6 hPa
07:06 16.7 °C 14.5 °C 87 % 9 km/h (11 km/h) 0 mm0 mm 22 °C 22.5 °C 22.9 °C 21.6 °C 20000 m 0   0 cm 0 min 0 W/m² 1019.6 hPa
07:00 16.6 °C 14.4 °C 87 % 9 km/h (10 km/h) 0 mm0 mm 22.1 °C 22.5 °C 22.9 °C 21.6 °C 20000 m 0   0 cm 0 min 0 W/m² 1019.6 hPa
06:54 16.6 °C 14.4 °C 87 % 8 km/h (9 km/h) 0 mm0 mm 22.1 °C 22.5 °C 22.9 °C 21.6 °C 20000 m 0   0 cm 0 min 0 W/m² 1019.6 hPa
06:48 16.6 °C 14.4 °C 87 % 8 km/h (9 km/h) 0 mm0 mm 22.1 °C 22.5 °C 22.9 °C 21.6 °C 20000 m 0   0 cm 0 min 0 W/m² 1019.7 hPa
06:42 17 °C 14.6 °C 86 % 6 km/h (9 km/h) 0 mm0 mm 22.1 °C 22.6 °C 22.9 °C 21.6 °C 20000 m 0   0 cm 0 min 0 W/m² 1019.6 hPa
06:36 17.1 °C 14.6 °C 85 % 7 km/h (9 km/h) 0 mm0 mm 22.2 °C 22.6 °C 22.9 °C 21.6 °C 20000 m 0   0 cm 0 min 0 W/m² 1019.7 hPa
06:30 17.1 °C 14.6 °C 85 % 9 km/h (12 km/h) 0 mm0 mm 22.2 °C 22.6 °C 23 °C 21.6 °C 20000 m 0   0 cm 0 min 0 W/m² 1019.6 hPa
06:24 17.1 °C 14.6 °C 85 % 11 km/h (14 km/h) 0 mm0 mm 22.2 °C 22.7 °C 23 °C 21.6 °C 20000 m 0   0 cm 0 min 0 W/m² 1019.6 hPa
06:18 17.1 °C 14.7 °C 86 % 11 km/h (14 km/h) 0 mm0 mm 22.3 °C 22.7 °C 22.9 °C 21.6 °C 20000 m 0   0 cm 0 min 0 W/m² 1019.7 hPa
06:12 17.1 °C 14.7 °C 86 % 10 km/h (13 km/h) 0 mm0 mm 22.3 °C 22.7 °C 22.9 °C 21.6 °C 20000 m 0   0 cm 0 min 0 W/m² 1019.7 hPa
06:06 17.2 °C 14.7 °C 85 % 11 km/h (14 km/h) 0 mm0 mm 22.3 °C 22.7 °C 23 °C 21.6 °C 20000 m 0   0 cm 0 min 0 W/m² 1019.8 hPa
06:00 17.2 °C 14.7 °C 85 % 10 km/h (13 km/h) 0 mm0 mm 22.4 °C 22.7 °C 22.9 °C 21.6 °C 20000 m 0   0 cm 0 min 0 W/m² 1019.8 hPa
05:54 17.3 °C 14.8 °C 85 % 9 km/h (12 km/h) 0 mm0 mm 22.4 °C 22.8 °C 22.9 °C 21.6 °C 20000 m 0   0 cm 0 min 0 W/m² 1019.9 hPa
05:48 17.3 °C 14.8 °C 85 % 8 km/h (10 km/h) 0 mm0 mm 22.4 °C 22.9 °C 23 °C 21.6 °C 20000 m 0   0 cm 0 min 0 W/m² 1020 hPa
05:42 17.4 °C 14.7 °C 84 % 9 km/h (12 km/h) 0 mm0 mm 22.4 °C 22.9 °C 22.9 °C 21.6 °C 20000 m 0   0 cm 0 min 0 W/m² 1019.9 hPa
05:36 17.5 °C 14.8 °C 84 % 10 km/h (12 km/h) 0 mm0 mm 22.5 °C 22.9 °C 22.9 °C 21.6 °C 20000 m 0   0 cm 0 min 0 W/m² 1019.9 hPa
05:30 17.4 °C 14.7 °C 84 % 9 km/h (11 km/h) 0 mm0 mm 22.5 °C 23 °C 23 °C 21.6 °C 20000 m 0   0 cm 0 min 0 W/m² 1019.9 hPa
05:24 17.4 °C 14.7 °C 84 % 9 km/h (12 km/h) 0 mm0 mm 22.5 °C 23 °C 22.9 °C 21.6 °C 20000 m 0   0 cm 0 min 0 W/m² 1019.9 hPa
05:18 17.6 °C 14.9 °C 84 % 8 km/h (12 km/h) 0 mm0 mm 22.6 °C 23 °C 22.9 °C 21.6 °C 20000 m 0   0 cm 0 min 0 W/m² 1019.9 hPa
05:12 17.7 °C 14.8 °C 83 % 6 km/h (9 km/h) 0 mm0 mm 22.6 °C 23 °C 22.9 °C 21.6 °C 20000 m 0   0 cm 0 min 0 W/m² 1020.1 hPa
05:06 17.7 °C 14.8 °C 83 % 6 km/h (8 km/h) 0 mm0 mm 22.6 °C 23.1 °C 23 °C 21.6 °C 20000 m 0   0 cm 0 min 0 W/m² 1020.1 hPa
05:00 17.7 °C 14.8 °C 83 % 6 km/h (9 km/h) 0 mm0 mm 22.7 °C 23.1 °C 22.9 °C 21.6 °C 20000 m 0   0 cm 0 min 0 W/m² 1020.1 hPa
04:54 17.7 °C 14.8 °C 83 % 8 km/h (11 km/h) 0 mm0 mm 22.7 °C 23.1 °C 22.9 °C 21.6 °C 20000 m 0   0 cm 0 min 0 W/m² 1020.2 hPa
04:48 17.8 °C 14.9 °C 83 % 8 km/h (11 km/h) 0 mm0 mm 22.7 °C 23.2 °C 22.9 °C 21.6 °C 20000 m 0   0 cm 0 min 0 W/m² 1020.2 hPa
04:42 17.8 °C 14.9 °C 83 % 6 km/h (9 km/h) 0 mm0 mm 22.8 °C 23.2 °C 22.9 °C 21.6 °C 20000 m 0   0 cm 0 min 0 W/m² 1020.2 hPa
04:36 17.9 °C 15 °C 83 % 7 km/h (11 km/h) 0 mm0 mm 22.8 °C 23.2 °C 22.9 °C 21.6 °C 20000 m 0   0 cm 0 min 0 W/m² 1020.3 hPa
04:30 17.9 °C 15 °C 83 % 9 km/h (12 km/h) 0 mm0 mm 22.9 °C 23.2 °C 22.9 °C 21.6 °C 20000 m 0   0 cm 0 min 0 W/m² 1020.4 hPa
04:24 18 °C 14.9 °C 82 % 10 km/h (13 km/h) 0 mm0 mm 22.9 °C 23.3 °C 22.9 °C 21.6 °C 20000 m 0   0 cm 0 min 0 W/m² 1020.5 hPa
04:18 18.1 °C 15 °C 82 % 10 km/h (14 km/h) 0 mm0 mm 22.9 °C 23.3 °C 22.9 °C 21.6 °C 20000 m 0   0 cm 0 min 0 W/m² 1020.7 hPa
04:12 18.1 °C 15 °C 82 % 12 km/h (15 km/h) 0 mm0 mm 23 °C 23.4 °C 22.9 °C 21.6 °C 20000 m 0   0 cm 0 min 0 W/m² 1020.8 hPa
04:06 18.1 °C 15 °C 82 % 13 km/h (16 km/h) 0 mm0 mm 23 °C 23.4 °C 22.9 °C 21.6 °C 20000 m 0   0 cm 0 min 0 W/m² 1020.8 hPa
04:00 18 °C 15.1 °C 83 % 12 km/h (14 km/h) 0 mm0 mm 23.1 °C 23.4 °C 22.9 °C 21.6 °C 20000 m 0   0 cm 0 min 0 W/m² 1020.8 hPa
03:54 18.2 °C 15.1 °C 82 % 10 km/h (14 km/h) 0 mm0 mm 23.1 °C 23.4 °C 22.9 °C 21.6 °C 20000 m 0   0 cm 0 min 0 W/m² 1020.9 hPa
03:48 18.1 °C 15 °C 82 % 9 km/h (11 km/h) 0 mm0 mm 23.1 °C 23.5 °C 22.9 °C 21.6 °C 20000 m 0   0 cm 0 min 0 W/m² 1021 hPa
03:42 18.2 °C 15.1 °C 82 % 9 km/h (12 km/h) 0 mm0 mm 23.2 °C 23.5 °C 22.9 °C 21.6 °C 20000 m 0   0 cm 0 min 0 W/m² 1021 hPa
03:36 18.2 °C 15.1 °C 82 % 10 km/h (12 km/h) 0 mm0 mm 23.2 °C 23.5 °C 22.9 °C 21.6 °C 20000 m 0   0 cm 0 min 0 W/m² 1021.1 hPa
03:30 18.1 °C 15 °C 82 % 9 km/h (11 km/h) 0 mm0 mm 23.2 °C 23.6 °C 22.9 °C 21.6 °C 20000 m 0   0 cm 0 min 0 W/m² 1021.1 hPa
03:24 18.1 °C 15 °C 82 % 7 km/h (9 km/h) 0 mm0 mm 23.3 °C 23.6 °C 22.9 °C 21.6 °C 20000 m 0   0 cm 0 min 0 W/m² 1021.1 hPa
03:18 18.3 °C 15 °C 81 % 6 km/h (8 km/h) 0 mm0 mm 23.3 °C 23.7 °C 22.9 °C 21.6 °C 20000 m 0   0 cm 0 min 0 W/m² 1021.2 hPa
03:12 18.2 °C 15.1 °C 82 % 7 km/h (9 km/h) 0 mm0 mm 23.3 °C 23.7 °C 22.9 °C 21.6 °C 20000 m 0   0 cm 0 min 0 W/m² 1021.3 hPa
03:06 18.3 °C 15 °C 81 % 8 km/h (12 km/h) 0 mm0 mm 23.4 °C 23.7 °C 22.9 °C 21.6 °C 20000 m 0   0 cm 0 min 0 W/m² 1021.3 hPa
03:00 18.4 °C 15.1 °C 81 % 10 km/h (12 km/h) 0 mm0 mm 23.4 °C 23.8 °C 22.9 °C 21.6 °C 20000 m 0   0 cm 0 min 0 W/m² 1021.2 hPa
02:54 18.6 °C 15.1 °C 80 % 10 km/h (12 km/h) 0 mm0 mm 23.5 °C 23.8 °C 22.9 °C 21.6 °C 20000 m 0   0 cm 0 min 0 W/m² 1021.3 hPa
02:48 18.6 °C 15.1 °C 80 % 10 km/h (12 km/h) 0 mm0 mm 23.5 °C 23.8 °C 22.9 °C 21.6 °C 20000 m 0   0 cm 0 min 0 W/m² 1021.4 hPa
02:42 18.8 °C 15.1 °C 79 % 9 km/h (12 km/h) 0 mm0 mm 23.5 °C 23.9 °C 22.9 °C 21.6 °C 20000 m 0   0 cm 0 min 0 W/m² 1021.4 hPa
02:36 18.6 °C 15.1 °C 80 % 6 km/h (9 km/h) 0 mm0 mm 23.6 °C 23.9 °C 22.8 °C 21.6 °C 20000 m 0   0 cm 0 min 0 W/m² 1021.5 hPa
02:30 18.6 °C 15.1 °C 80 % 6 km/h (7 km/h) 0 mm0 mm 23.6 °C 23.9 °C 22.8 °C 21.6 °C 20000 m 0   0 cm 0 min 0 W/m² 1021.5 hPa
02:24 18.5 °C 15 °C 80 % 6 km/h (8 km/h) 0 mm0 mm 23.6 °C 24 °C 22.8 °C 21.6 °C 20000 m 0   0 cm 0 min 0 W/m² 1021.5 hPa
02:18 18.5 °C 15 °C 80 % 6 km/h (8 km/h) 0 mm0 mm 23.7 °C 24 °C 22.8 °C 21.6 °C 20000 m 0   0 cm 0 min 0 W/m² 1021.6 hPa
02:12 18.7 °C 15.2 °C 80 % 7 km/h (9 km/h) 0 mm0 mm 23.8 °C 24.1 °C 22.8 °C 21.6 °C 20000 m 0   0 cm 0 min 0 W/m² 1021.7 hPa
02:06 18.7 °C 15 °C 79 % 8 km/h (10 km/h) 0 mm0 mm 23.8 °C 24.1 °C 22.8 °C 21.6 °C 20000 m 0   0 cm 0 min 0 W/m² 1021.7 hPa
02:00 18.8 °C 15.1 °C 79 % 8 km/h (10 km/h) 0 mm0 mm 23.8 °C 24.1 °C 22.8 °C 21.6 °C 20000 m 0   0 cm 0 min 0 W/m² 1021.7 hPa
01:54 18.9 °C 15 °C 78 % 8 km/h (10 km/h) 0 mm0 mm 23.9 °C 24.1 °C 22.7 °C 21.6 °C 20000 m 0   0 cm 0 min 0 W/m² 1021.7 hPa
01:48 18.9 °C 14.8 °C 77 % 6 km/h (8 km/h) 0 mm0 mm 23.9 °C 24.2 °C 22.8 °C 21.6 °C 20000 m 0   0 cm 0 min 0 W/m² 1021.8 hPa
01:42 18.9 °C 15 °C 78 % 6 km/h (7 km/h) 0 mm0 mm 24 °C 24.2 °C 22.7 °C 21.6 °C 20000 m 0   0 cm 0 min 0 W/m² 1021.9 hPa
01:36 19.2 °C 14.9 °C 76 % 5 km/h (6 km/h) 0 mm0 mm 24 °C 24.3 °C 22.7 °C 21.6 °C 20000 m 0   0 cm 0 min 0 W/m² 1021.9 hPa
01:30 19.4 °C 15.3 °C 77 % 5 km/h (6 km/h) 0 mm0 mm 24.1 °C 24.3 °C 22.7 °C 21.6 °C 20000 m 0   0 cm 0 min 0 W/m² 1021.8 hPa
01:24 19.5 °C 15.2 °C 76 % 5 km/h (7 km/h) 0 mm0 mm 24.1 °C 24.3 °C 22.7 °C 21.6 °C 20000 m 0   0 cm 0 min 0 W/m² 1021.9 hPa
01:18 19.3 °C 15 °C 76 % 6 km/h (7 km/h) 0 mm0 mm 24.2 °C 24.4 °C 22.7 °C 21.6 °C 20000 m 0   0 cm 0 min 0 W/m² 1021.9 hPa
01:12 19.5 °C 14.9 °C 75 % 6 km/h (8 km/h) 0 mm0 mm 24.2 °C 24.4 °C 22.7 °C 21.6 °C 20000 m 0   0 cm 0 min 0 W/m² 1021.9 hPa
01:06 19.4 °C 15.3 °C 77 % 5 km/h (8 km/h) 0 mm0 mm 24.2 °C 24.5 °C 22.7 °C 21.6 °C 20000 m 0   0 cm 0 min 0 W/m² 1021.9 hPa
01:00 19.1 °C 15.2 °C 78 % 4 km/h (5 km/h) 0 mm0 mm 24.3 °C 24.5 °C 22.7 °C 21.6 °C 20000 m 0   0 cm 0 min 0 W/m² 1022 hPa
00:54 19.8 °C 15.2 °C 75 % 4 km/h (5 km/h) 0 mm0 mm 24.3 °C 24.6 °C 22.7 °C 21.6 °C 20000 m 0   0 cm 0 min 0 W/m² 1021.8 hPa
00:48 20.1 °C 15.1 °C 73 % 4 km/h (6 km/h) 0 mm0 mm 24.4 °C 24.6 °C 22.7 °C 21.6 °C 20000 m 0   0 cm 0 min 0 W/m² 1021.9 hPa
00:42 20.3 °C 15.3 °C 73 % 5 km/h (6 km/h) 0 mm0 mm 24.4 °C 24.6 °C 22.7 °C 21.6 °C 20000 m 0   0 cm 0 min 0 W/m² 1021.9 hPa
00:36 20 °C 15.2 °C 74 % 5 km/h (6 km/h) 0 mm0 mm 24.5 °C 24.7 °C 22.7 °C 21.6 °C 20000 m 0   0 cm 0 min 0 W/m² 1021.9 hPa
00:30 20 °C 15.2 °C 74 % 6 km/h (7 km/h) 0 mm0 mm 24.5 °C 24.7 °C 22.7 °C 21.6 °C 20000 m 0   0 cm 0 min 0 W/m² 1022 hPa
00:24 20.1 °C 15.1 °C 73 % 6 km/h (8 km/h) 0 mm0 mm 24.6 °C 24.7 °C 22.6 °C 21.6 °C 20000 m 0   0 cm 0 min 0 W/m² 1022 hPa
00:18 20.2 °C 15.2 °C 73 % 5 km/h (6 km/h) 0 mm0 mm 24.6 °C 24.8 °C 22.6 °C 21.6 °C 20000 m 0   0 cm 0 min 0 W/m² 1022 hPa
00:12 19.7 °C 15.1 °C 75 % 4 km/h (6 km/h) 0 mm0 mm 24.7 °C 24.8 °C 22.6 °C 21.6 °C 20000 m 0   0 cm 0 min 0 W/m² 1021.9 hPa
00:06 19.8 °C 15 °C 74 % 3 km/h (4 km/h) 0 mm0 mm 24.7 °C 24.8 °C 22.6 °C 21.6 °C 20000 m 0   0 cm 0 min 0 W/m² 1021.9 hPa
00:00 20.1 °C 15.3 °C 74 % 3 km/h (3 km/h) 0 mm0 mm 24.8 °C 24.9 °C 22.6 °C 21.6 °C 20000 m 0   0 cm 0 min 0 W/m² 1021.9 hPa

Données via Météo-France

Relevés météo à Auxerre-Perrigny

Cette page rassemble les observations de la station de Auxerre-Perrigny : température, humidité, vent, précipitations et pression atmosphérique. Les graphiques facilitent le suivi de la journée, tandis que le tableau donne accès aux mesures horaires et infra-horaires disponibles.

Pour replacer ces mesures dans leur contexte, consultez la climatologie de Auxerre-Perrigny. Retrouvez aussi la carte des observations météo en temps réel.